Darstellungsparameter: Aktuell verwendete Einstellungen:
Skalierung der Graphiken ... ?
xyx+y,   Skalierungsfaktor:      Skalierung: Modus: x, Faktor: 1
Darstellungszeitraum ... ?
Vom - - bis: - -   Zeitraum: 18.07.2020 - 19.07.2020
Min/Max/Avg-Anzeige ... ?
Zeige MMA aktuell
Zeige MMA Monat
Zeige MMA alles
Zeige --A aktuell
Zeige --A Monat
Zeige --A alles
Keine MMA-Anzeige
MMA:
Minimum Maximum Average (ber die Originaldaten)
MMA-Basis: 18.07.2020 - 19.07.2020
Quicknavigation für Darstellung... ?
Tage:      1T, 2T, 3T, 5T -1T -2T -3T -5T +1T +2T +3T +5T
Wochen: 1W, 2W, 3W -1W -2W -3W +1W +2W +3W
Monate: 1M, 3M, 6M -1M -3M -6M +1M +3M +6M
Jahre:    1J, 3J, 5J, 10J -1J -3J -5J -10J +1J +3J +5J +10J
Nutze für die Darstellung ... ?
Originaldaten oder Mittelwerte auf ...
Stundenbasis Tagesbasis Wochenbasis
Monatsbasis Jahresbasis      Datenbasis: Original-Daten
Darstellen als:
Statistik (Auto) Statistik J:M      Darstellung:
Zur Graphik,    zurück zur Übersicht aller Sensoren.
 
Tabellarische Datenbersicht: ?
 
Sensor: Nr:Datum:Temp:Abs-Feuchte:Windchill:Wind:
Aussen-T/F 1 18-07-2020 00:00:00 15.9 C 11.78 g/m*3 15.9 C 3.2 km/h
2 18-07-2020 00:05:00 15.9 C 11.92 g/m*3 15.9 C 3.2 km/h
3 18-07-2020 00:10:00 15.8 C 11.85 g/m*3 15.8 C 1.6 km/h
4 18-07-2020 00:15:00 15.7 C 11.77 g/m*3 15.7 C 0 km/h
5 18-07-2020 00:20:00 15.7 C 11.77 g/m*3 15.7 C 1.6 km/h
6 18-07-2020 00:25:00 15.6 C 11.7 g/m*3 15.6 C 0 km/h
7 18-07-2020 00:30:00 15.4 C 11.56 g/m*3 15.4 C 0 km/h
8 18-07-2020 00:35:00 15.3 C 11.62 g/m*3 15.3 C 0 km/h
9 18-07-2020 00:40:00 15.2 C 11.55 g/m*3 15.2 C 0 km/h
10 18-07-2020 00:45:00 15.1 C 11.48 g/m*3 15.1 C 0 km/h
11 18-07-2020 00:50:00 15 C 11.54 g/m*3 15 C 0 km/h
12 18-07-2020 00:55:00 14.9 C 11.47 g/m*3 14.9 C 0 km/h
13 18-07-2020 01:00:00 14.8 C 11.4 g/m*3 14.8 C 0 km/h
14 18-07-2020 01:05:00 14.7 C 11.33 g/m*3 14.7 C 0 km/h
15 18-07-2020 01:10:00 14.6 C 11.39 g/m*3 14.6 C 0 km/h
16 18-07-2020 01:15:00 14.5 C 11.32 g/m*3 14.5 C 0 km/h
17 18-07-2020 01:20:00 14.4 C 11.25 g/m*3 14.4 C 0 km/h
18 18-07-2020 01:25:00 14.4 C 11.25 g/m*3 14.4 C 0 km/h
19 18-07-2020 01:30:00 14.3 C 11.3 g/m*3 14.3 C 0 km/h
20 18-07-2020 01:35:00 14.3 C 11.3 g/m*3 14.3 C 0 km/h
21 18-07-2020 01:40:00 14.2 C 11.23 g/m*3 14.2 C 0 km/h
22 18-07-2020 01:45:00 14.1 C 11.17 g/m*3 14.1 C 0 km/h
23 18-07-2020 01:50:00 14.1 C 11.17 g/m*3 14.1 C 0 km/h
24 18-07-2020 01:55:00 14.1 C 11.17 g/m*3 14.1 C 0 km/h
25 18-07-2020 02:00:00 14 C 11.22 g/m*3 14 C 0 km/h
Sensor: Nr:Datum:Temp:Abs-Feuchte:Windchill:Wind:
Aussen-T/F 26 18-07-2020 02:05:00 13.9 C 11.15 g/m*3 13.9 C 0 km/h
27 18-07-2020 02:10:00 13.9 C 11.15 g/m*3 13.9 C 0 km/h
28 18-07-2020 02:15:00 13.8 C 11.08 g/m*3 13.8 C 0 km/h
29 18-07-2020 02:20:00 13.8 C 11.08 g/m*3 13.8 C 0 km/h
30 18-07-2020 02:25:00 13.8 C 11.08 g/m*3 13.8 C 0 km/h
31 18-07-2020 02:30:00 13.7 C 11.01 g/m*3 13.7 C 0 km/h
32 18-07-2020 02:35:00 13.7 C 11.01 g/m*3 13.7 C 0 km/h
33 18-07-2020 02:40:00 13.7 C 11.13 g/m*3 13.7 C 0 km/h
34 18-07-2020 02:45:00 13.6 C 10.95 g/m*3 13.6 C 0 km/h
35 18-07-2020 02:50:00 13.6 C 11.06 g/m*3 13.6 C 0 km/h
36 18-07-2020 02:55:00 13.5 C 10.99 g/m*3 13.5 C 0 km/h
37 18-07-2020 03:00:00 13.4 C 10.93 g/m*3 13.4 C 0 km/h
38 18-07-2020 03:05:00 13.4 C 10.93 g/m*3 13.4 C 0 km/h
39 18-07-2020 03:10:00 13.3 C 10.86 g/m*3 13.3 C 0 km/h
40 18-07-2020 03:15:00 13.2 C 10.79 g/m*3 13.2 C 0 km/h
41 18-07-2020 03:20:00 13.2 C 10.79 g/m*3 13.2 C 0 km/h
42 18-07-2020 03:25:00 13.2 C 10.79 g/m*3 13.2 C 0 km/h
43 18-07-2020 03:30:00 13.2 C 10.79 g/m*3 13.2 C 0 km/h
44 18-07-2020 03:35:00 13.2 C 10.79 g/m*3 13.2 C 0 km/h
45 18-07-2020 03:40:00 13.1 C 10.73 g/m*3 13.1 C 0 km/h
46 18-07-2020 03:45:00 13.1 C 10.73 g/m*3 13.1 C 0 km/h
47 18-07-2020 03:50:00 13.1 C 10.73 g/m*3 13.1 C 0 km/h
48 18-07-2020 03:55:00 13.1 C 10.73 g/m*3 13.1 C 0 km/h
49 18-07-2020 04:00:00 13 C 10.66 g/m*3 13 C 0 km/h
50 18-07-2020 04:05:00 12.9 C 10.59 g/m*3 12.9 C 0 km/h
Sensor: Nr:Datum:Temp:Abs-Feuchte:Windchill:Wind:
Aussen-T/F 51 18-07-2020 04:10:00 12.9 C 10.59 g/m*3 12.9 C 0 km/h
52 18-07-2020 04:15:00 12.8 C 10.53 g/m*3 12.8 C 0 km/h
53 18-07-2020 04:20:00 12.8 C 10.64 g/m*3 12.8 C 0 km/h
54 18-07-2020 04:25:00 12.9 C 10.71 g/m*3 12.9 C 0 km/h
55 18-07-2020 04:30:00 12.8 C 10.64 g/m*3 12.8 C 0 km/h
56 18-07-2020 04:35:00 12.8 C 10.64 g/m*3 12.8 C 0 km/h
57 18-07-2020 04:40:00 12.8 C 10.64 g/m*3 12.8 C 0 km/h
58 18-07-2020 04:45:00 12.8 C 10.64 g/m*3 12.8 C 0 km/h
59 18-07-2020 04:50:00 12.8 C 10.64 g/m*3 12.8 C 0 km/h
60 18-07-2020 04:55:00 12.8 C 10.64 g/m*3 12.8 C 0 km/h
61 18-07-2020 05:00:00 12.9 C 10.71 g/m*3 12.9 C 0 km/h
62 18-07-2020 05:05:00 13 C 10.77 g/m*3 13 C 0 km/h
63 18-07-2020 05:10:00 13 C 10.77 g/m*3 13 C 0 km/h
64 18-07-2020 05:15:00 13.1 C 10.84 g/m*3 13.1 C 0 km/h
65 18-07-2020 05:20:00 13.1 C 10.84 g/m*3 13.1 C 0 km/h
66 18-07-2020 05:25:00 13.1 C 10.84 g/m*3 13.1 C 0 km/h
67 18-07-2020 05:30:00 13.1 C 10.84 g/m*3 13.1 C 0 km/h
68 18-07-2020 05:35:00 13.2 C 10.91 g/m*3 13.2 C 0 km/h
69 18-07-2020 05:40:00 13.2 C 10.91 g/m*3 13.2 C 0 km/h
70 18-07-2020 05:45:00 13.2 C 10.91 g/m*3 13.2 C 0 km/h
71 18-07-2020 05:50:00 13.2 C 10.91 g/m*3 13.2 C 0 km/h
72 18-07-2020 05:55:00 13.2 C 11.02 g/m*3 13.2 C 0 km/h
73 18-07-2020 06:00:00 13.2 C 11.02 g/m*3 13.2 C 0 km/h
74 18-07-2020 06:05:00 13.3 C 11.09 g/m*3 13.3 C 0 km/h
75 18-07-2020 06:10:00 13.3 C 11.09 g/m*3 13.3 C 0 km/h
Sensor: Nr:Datum:Temp:Abs-Feuchte:Windchill:Wind:
Aussen-T/F 76 18-07-2020 06:15:00 13.3 C 11.09 g/m*3 13.3 C 0 km/h
77 18-07-2020 06:20:00 13.4 C 11.16 g/m*3 13.4 C 0 km/h
78 18-07-2020 06:25:00 13.4 C 11.16 g/m*3 13.4 C 0 km/h
79 18-07-2020 06:30:00 13.5 C 11.23 g/m*3 13.5 C 0 km/h
80 18-07-2020 06:35:00 13.6 C 11.3 g/m*3 13.6 C 0 km/h
81 18-07-2020 06:40:00 13.6 C 11.3 g/m*3 13.6 C 0 km/h
82 18-07-2020 06:45:00 13.7 C 11.37 g/m*3 13.7 C 0 km/h
83 18-07-2020 06:50:00 13.7 C 11.37 g/m*3 13.7 C 0 km/h
84 18-07-2020 06:55:00 13.7 C 11.37 g/m*3 13.7 C 0 km/h
85 18-07-2020 07:00:00 13.8 C 11.44 g/m*3 13.8 C 0 km/h
86 18-07-2020 07:05:00 13.8 C 11.44 g/m*3 13.8 C 0 km/h
87 18-07-2020 07:10:00 13.8 C 11.44 g/m*3 13.8 C 0 km/h
88 18-07-2020 07:15:00 13.8 C 11.44 g/m*3 13.8 C 0 km/h
89 18-07-2020 07:20:00 13.8 C 11.44 g/m*3 13.8 C 0 km/h
90 18-07-2020 07:25:00 13.8 C 11.32 g/m*3 13.8 C 0 km/h
91 18-07-2020 07:30:00 13.8 C 11.32 g/m*3 13.8 C 0 km/h
92 18-07-2020 07:35:00 13.8 C 11.32 g/m*3 13.8 C 0 km/h
93 18-07-2020 07:40:00 13.8 C 11.32 g/m*3 13.8 C 0 km/h
94 18-07-2020 07:45:00 13.8 C 11.32 g/m*3 13.8 C 0 km/h
95 18-07-2020 07:50:00 13.8 C 11.32 g/m*3 13.8 C 0 km/h
96 18-07-2020 07:55:00 13.8 C 11.32 g/m*3 13.8 C 0 km/h
97 18-07-2020 08:00:00 13.8 C 11.32 g/m*3 13.8 C 0 km/h
98 18-07-2020 08:05:00 13.8 C 11.32 g/m*3 13.8 C 0 km/h
99 18-07-2020 08:10:00 13.8 C 11.32 g/m*3 13.8 C 0 km/h
100 18-07-2020 08:15:00 13.9 C 11.39 g/m*3 13.9 C 0 km/h
Sensor: Nr:Datum:Temp:Abs-Feuchte:Windchill:Wind:
Aussen-T/F 101 18-07-2020 08:20:00 13.9 C 11.39 g/m*3 13.9 C 0 km/h
102 18-07-2020 08:25:00 14 C 11.58 g/m*3 14 C 0 km/h
103 18-07-2020 08:30:00 14.1 C 11.65 g/m*3 14.1 C 0 km/h
104 18-07-2020 08:35:00 14.2 C 11.72 g/m*3 14.2 C 0 km/h
105 18-07-2020 08:40:00 14.3 C 11.79 g/m*3 14.3 C 0 km/h
106 18-07-2020 08:45:00 14.3 C 11.79 g/m*3 14.3 C 0 km/h
107 18-07-2020 08:50:00 14.4 C 11.87 g/m*3 14.4 C 0 km/h
108 18-07-2020 08:55:00 14.6 C 11.89 g/m*3 14.6 C 0 km/h
109 18-07-2020 09:00:00 14.7 C 12.09 g/m*3 14.7 C 0 km/h
110 18-07-2020 09:05:00 14.8 C 12.16 g/m*3 14.8 C 0 km/h
111 18-07-2020 09:10:00 15 C 12.18 g/m*3 15 C 0 km/h
112 18-07-2020 09:15:00 15.1 C 12.26 g/m*3 15.1 C 0 km/h
113 18-07-2020 09:20:00 15.3 C 12.41 g/m*3 15.3 C 0 km/h
114 18-07-2020 09:25:00 15.4 C 12.48 g/m*3 15.4 C 0 km/h
115 18-07-2020 09:30:00 15.6 C 12.63 g/m*3 15.6 C 0 km/h
116 18-07-2020 09:35:00 15.8 C 12.79 g/m*3 15.8 C 0 km/h
117 18-07-2020 09:40:00 15.9 C 12.73 g/m*3 15.9 C 0 km/h
118 18-07-2020 09:45:00 16.2 C 12.96 g/m*3 16.2 C 0 km/h
119 18-07-2020 09:50:00 16.3 C 13.04 g/m*3 16.3 C 0 km/h
120 18-07-2020 09:55:00 16.5 C 13.06 g/m*3 16.5 C 0 km/h
121 18-07-2020 10:00:00 16.7 C 13.22 g/m*3 16.7 C 0 km/h
122 18-07-2020 10:05:00 16.8 C 13.3 g/m*3 16.8 C 0 km/h
123 18-07-2020 10:10:00 17 C 13.31 g/m*3 17 C 0 km/h
124 18-07-2020 10:15:00 17.2 C 13.47 g/m*3 17.2 C 0 km/h
125 18-07-2020 10:20:00 17.5 C 13.57 g/m*3 17.5 C 0 km/h
Sensor: Nr:Datum:Temp:Abs-Feuchte:Windchill:Wind:
Aussen-T/F 126 18-07-2020 10:25:00 17.8 C 13.51 g/m*3 17.8 C 0 km/h
127 18-07-2020 10:30:00 18.3 C 13.6 g/m*3 18.3 C 0 km/h
128 18-07-2020 10:35:00 18.7 C 13.77 g/m*3 18.7 C 0 km/h
129 18-07-2020 10:40:00 19.1 C 13.77 g/m*3 19.1 C 0 km/h
130 18-07-2020 10:45:00 19.6 C 13.67 g/m*3 19.6 C 0 km/h
131 18-07-2020 10:50:00 20.2 C 14.34 g/m*3 20.2 C 0 km/h
132 18-07-2020 10:55:00 20.5 C 14.06 g/m*3 20.5 C 0 km/h
133 18-07-2020 11:00:00 20.7 C 13.86 g/m*3 20.7 C 0 km/h
134 18-07-2020 11:05:00 20.9 C 13.48 g/m*3 20.9 C 0 km/h
135 18-07-2020 11:10:00 21.2 C 13.34 g/m*3 21.2 C 0 km/h
136 18-07-2020 11:15:00 21.5 C 13.01 g/m*3 21.5 C 0 km/h
137 18-07-2020 11:20:00 21.8 C 13.24 g/m*3 21.8 C 0 km/h
138 18-07-2020 11:25:00 22.1 C 13.08 g/m*3 22.1 C 0 km/h
139 18-07-2020 11:30:00 22.2 C 13.35 g/m*3 22.2 C 0 km/h
140 18-07-2020 11:35:00 22.3 C 12.83 g/m*3 22.3 C 0 km/h
141 18-07-2020 11:40:00 22.4 C 12.71 g/m*3 22.4 C 9.7 km/h
142 18-07-2020 11:45:00 22.6 C 12.66 g/m*3 22.6 C 9.7 km/h
143 18-07-2020 11:50:00 22.7 C 12.53 g/m*3 22.7 C 8.1 km/h
144 18-07-2020 11:55:00 22.7 C 12.73 g/m*3 22.7 C 8.1 km/h
145 18-07-2020 12:00:00 22.7 C 12.53 g/m*3 22.7 C 6.4 km/h
146 18-07-2020 12:05:00 22.7 C 12.12 g/m*3 22.7 C 4.8 km/h
147 18-07-2020 12:10:00 22.7 C 12.53 g/m*3 22.7 C 6.4 km/h
148 18-07-2020 12:15:00 22.8 C 12.8 g/m*3 22.8 C 1.6 km/h
149 18-07-2020 12:20:00 22.8 C 11.79 g/m*3 22.8 C 4.8 km/h
150 18-07-2020 12:25:00 22.9 C 12.06 g/m*3 22.9 C 4.8 km/h
Sensor: Nr:Datum:Temp:Abs-Feuchte:Windchill:Wind:
Aussen-T/F 151 18-07-2020 12:30:00 23.1 C 12.2 g/m*3 23.1 C 3.2 km/h
152 18-07-2020 12:35:00 23.2 C 12.47 g/m*3 23.2 C 4.8 km/h
153 18-07-2020 12:40:00 23.3 C 12.34 g/m*3 23.3 C 6.4 km/h
154 18-07-2020 12:45:00 23.3 C 12.96 g/m*3 23.3 C 0 km/h
155 18-07-2020 12:50:00 23.3 C 12.55 g/m*3 23.3 C 3.2 km/h
156 18-07-2020 12:55:00 23.2 C 11.85 g/m*3 23.2 C 4.8 km/h
157 18-07-2020 13:00:00 23.2 C 12.06 g/m*3 23.2 C 6.4 km/h
158 18-07-2020 13:05:00 23.2 C 11.85 g/m*3 23.2 C 3.2 km/h
159 18-07-2020 13:10:00 23.3 C 12.13 g/m*3 23.3 C 4.8 km/h
160 18-07-2020 13:15:00 23.5 C 12.05 g/m*3 23.5 C 4.8 km/h
161 18-07-2020 13:20:00 23.7 C 11.98 g/m*3 23.7 C 6.4 km/h
162 18-07-2020 13:25:00 23.9 C 12.11 g/m*3 23.9 C 9.7 km/h
163 18-07-2020 13:30:00 24 C 11.97 g/m*3 24 C 8.1 km/h
164 18-07-2020 13:35:00 24.1 C 12.03 g/m*3 24.1 C 3.2 km/h
165 18-07-2020 13:40:00 24.2 C 11.88 g/m*3 24.2 C 6.4 km/h
166 18-07-2020 13:45:00 24.3 C 13.06 g/m*3 24.3 C 9.7 km/h
167 18-07-2020 13:50:00 24.3 C 12.61 g/m*3 24.3 C 0 km/h
168 18-07-2020 13:55:00 24.4 C 13.58 g/m*3 24.4 C 0 km/h
169 18-07-2020 14:00:00 24.3 C 11.95 g/m*3 24.3 C 6.4 km/h
170 18-07-2020 14:05:00 24.3 C 12.17 g/m*3 24.3 C 0 km/h
171 18-07-2020 14:10:00 24.3 C 11.95 g/m*3 24.3 C 4.8 km/h
172 18-07-2020 14:15:00 24.4 C 12.24 g/m*3 24.4 C 1.6 km/h
173 18-07-2020 14:20:00 24.4 C 14.24 g/m*3 24.4 C 0 km/h
174 18-07-2020 14:25:00 24.4 C 14.47 g/m*3 24.4 C 1.6 km/h
175 18-07-2020 14:30:00 24.2 C 12.32 g/m*3 24.2 C 4.8 km/h
Sensor: Nr:Datum:Temp:Abs-Feuchte:Windchill:Wind:
Aussen-T/F 176 18-07-2020 14:35:00 24.1 C 12.25 g/m*3 24.1 C 4.8 km/h
177 18-07-2020 14:40:00 23.9 C 12.11 g/m*3 23.9 C 8.1 km/h
178 18-07-2020 14:45:00 23.8 C 13.98 g/m*3 23.8 C 3.2 km/h
179 18-07-2020 14:50:00 23.7 C 13.48 g/m*3 23.7 C 4.8 km/h
180 18-07-2020 14:55:00 23.6 C 14.25 g/m*3 23.6 C 3.2 km/h
181 18-07-2020 15:00:00 23.6 C 14.46 g/m*3 23.6 C 3.2 km/h
182 18-07-2020 15:05:00 23.4 C 14.51 g/m*3 23.4 C 3.2 km/h
183 18-07-2020 15:10:00 23.4 C 14.51 g/m*3 23.4 C 3.2 km/h
184 18-07-2020 15:15:00 23.5 C 14.8 g/m*3 23.5 C 0 km/h
185 18-07-2020 15:20:00 23.6 C 14.89 g/m*3 23.6 C 0 km/h
186 18-07-2020 15:25:00 23.8 C 13.34 g/m*3 23.8 C 0 km/h
187 18-07-2020 15:30:00 24.1 C 13.13 g/m*3 24.1 C 0 km/h
188 18-07-2020 15:35:00 24.4 C 12.46 g/m*3 24.4 C 0 km/h
189 18-07-2020 15:40:00 24.7 C 12 g/m*3 24.7 C 0 km/h
190 18-07-2020 15:45:00 24.9 C 12.59 g/m*3 24.9 C 0 km/h
191 18-07-2020 15:50:00 25.1 C 12.5 g/m*3 25.1 C 3.2 km/h
192 18-07-2020 15:55:00 25.3 C 11.94 g/m*3 25.3 C 3.2 km/h
193 18-07-2020 16:00:00 25.4 C 12.01 g/m*3 25.4 C 3.2 km/h
194 18-07-2020 16:05:00 25.7 C 11.97 g/m*3 25.7 C 8.1 km/h
195 18-07-2020 16:10:00 26 C 12.9 g/m*3 26 C 3.2 km/h
196 18-07-2020 16:15:00 26.4 C 12.2 g/m*3 26.4 C 4.8 km/h
197 18-07-2020 16:20:00 26.7 C 11.9 g/m*3 26.7 C 8.1 km/h
198 18-07-2020 16:25:00 26.9 C 11.77 g/m*3 26.9 C 4.8 km/h
199 18-07-2020 16:30:00 26.9 C 11.77 g/m*3 26.9 C 4.8 km/h
200 18-07-2020 16:35:00 26.8 C 11.96 g/m*3 26.8 C 6.4 km/h
Sensor: Nr:Datum:Temp:Abs-Feuchte:Windchill:Wind:
Aussen-T/F 201 18-07-2020 16:40:00 26.6 C 11.83 g/m*3 26.6 C 4.8 km/h
202 18-07-2020 16:45:00 26.7 C 11.9 g/m*3 26.7 C 6.4 km/h
203 18-07-2020 16:50:00 26.7 C 11.64 g/m*3 26.7 C 6.4 km/h
204 18-07-2020 16:55:00 26.7 C 11.64 g/m*3 26.7 C 3.2 km/h
205 18-07-2020 17:00:00 26.6 C 11.58 g/m*3 26.6 C 1.6 km/h
206 18-07-2020 17:05:00 26.6 C 12.08 g/m*3 26.6 C 4.8 km/h
207 18-07-2020 17:10:00 26.6 C 11.58 g/m*3 26.6 C 6.4 km/h
208 18-07-2020 17:15:00 26.3 C 11.39 g/m*3 26.3 C 8.1 km/h
209 18-07-2020 17:20:00 26.1 C 11.51 g/m*3 26.1 C 4.8 km/h
210 18-07-2020 17:25:00 26 C 11.44 g/m*3 26 C 9.7 km/h
211 18-07-2020 17:30:00 25.8 C 10.83 g/m*3 25.8 C 4.8 km/h
212 18-07-2020 17:35:00 25.8 C 11.32 g/m*3 25.8 C 4.8 km/h
213 18-07-2020 17:40:00 25.8 C 12.76 g/m*3 25.8 C 4.8 km/h
214 18-07-2020 17:45:00 25.8 C 14.2 g/m*3 25.8 C 0 km/h
215 18-07-2020 17:50:00 25.9 C 12.59 g/m*3 25.9 C 3.2 km/h
216 18-07-2020 17:55:00 26.1 C 11.26 g/m*3 26.1 C 4.8 km/h
217 18-07-2020 18:00:00 26.2 C 11.32 g/m*3 26.2 C 4.8 km/h
218 18-07-2020 18:05:00 26.2 C 11.82 g/m*3 26.2 C 4.8 km/h
219 18-07-2020 18:10:00 26.3 C 11.64 g/m*3 26.3 C 8.1 km/h
220 18-07-2020 18:15:00 26.2 C 11.32 g/m*3 26.2 C 4.8 km/h
221 18-07-2020 18:20:00 26.3 C 12.63 g/m*3 26.3 C 0 km/h
222 18-07-2020 18:25:00 26.5 C 12.77 g/m*3 26.5 C 0 km/h
223 18-07-2020 18:30:00 26.7 C 11.64 g/m*3 26.7 C 3.2 km/h
224 18-07-2020 18:35:00 26.8 C 11.71 g/m*3 26.8 C 3.2 km/h
225 18-07-2020 18:40:00 27 C 11.84 g/m*3 27 C 8.1 km/h
Sensor: Nr:Datum:Temp:Abs-Feuchte:Windchill:Wind:
Aussen-T/F 226 18-07-2020 18:45:00 27.3 C 12.04 g/m*3 27.3 C 6.4 km/h
227 18-07-2020 18:50:00 27.6 C 11.71 g/m*3 27.6 C 8.1 km/h
228 18-07-2020 18:55:00 27.7 C 11.77 g/m*3 27.7 C 8.1 km/h
229 18-07-2020 19:00:00 27.9 C 12.17 g/m*3 27.9 C 8.1 km/h
230 18-07-2020 19:05:00 28.2 C 11.82 g/m*3 28.2 C 6.4 km/h
231 18-07-2020 19:10:00 28.3 C 11.89 g/m*3 28.3 C 8.1 km/h
232 18-07-2020 19:15:00 28.3 C 11.61 g/m*3 28.3 C 6.4 km/h
233 18-07-2020 19:20:00 28.3 C 11.61 g/m*3 28.3 C 8.1 km/h
234 18-07-2020 19:25:00 28.1 C 11.21 g/m*3 28.1 C 9.7 km/h
235 18-07-2020 19:30:00 27.8 C 11.57 g/m*3 27.8 C 8.1 km/h
236 18-07-2020 19:35:00 27.7 C 11.5 g/m*3 27.7 C 3.2 km/h
237 18-07-2020 19:40:00 27.6 C 11.44 g/m*3 27.6 C 3.2 km/h
238 18-07-2020 19:45:00 27.6 C 11.44 g/m*3 27.6 C 4.8 km/h
239 18-07-2020 19:50:00 27.6 C 11.71 g/m*3 27.6 C 4.8 km/h
240 18-07-2020 19:55:00 27.6 C 11.44 g/m*3 27.6 C 1.6 km/h
241 18-07-2020 20:00:00 27.6 C 11.44 g/m*3 27.6 C 4.8 km/h
242 18-07-2020 20:05:00 27.5 C 11.64 g/m*3 27.5 C 6.4 km/h
243 18-07-2020 20:10:00 27.4 C 11.05 g/m*3 27.4 C 3.2 km/h
244 18-07-2020 20:15:00 27.3 C 11.51 g/m*3 27.3 C 1.6 km/h
245 18-07-2020 20:20:00 27.1 C 13.46 g/m*3 27.1 C 0 km/h
246 18-07-2020 20:25:00 26.9 C 13.05 g/m*3 26.9 C 3.2 km/h
247 18-07-2020 20:30:00 26.8 C 12.22 g/m*3 26.8 C 1.6 km/h
248 18-07-2020 20:35:00 26.7 C 13.67 g/m*3 26.7 C 4.8 km/h
249 18-07-2020 20:40:00 26.3 C 13.62 g/m*3 26.3 C 3.2 km/h
250 18-07-2020 20:45:00 25.6 C 13.33 g/m*3 25.6 C 3.2 km/h
Sensor: Nr:Datum:Temp:Abs-Feuchte:Windchill:Wind:
Aussen-T/F 251 18-07-2020 20:50:00 25 C 13.12 g/m*3 25 C 4.8 km/h
252 18-07-2020 20:55:00 24.3 C 13.06 g/m*3 24.3 C 6.4 km/h
253 18-07-2020 21:00:00 23.7 C 13.05 g/m*3 23.7 C 6.4 km/h
254 18-07-2020 21:05:00 23.1 C 12.82 g/m*3 23.1 C 6.4 km/h
255 18-07-2020 21:10:00 22.6 C 12.86 g/m*3 22.6 C 6.4 km/h
256 18-07-2020 21:15:00 22.2 C 12.76 g/m*3 22.2 C 6.4 km/h
257 18-07-2020 21:20:00 21.8 C 12.47 g/m*3 21.8 C 6.4 km/h
258 18-07-2020 21:25:00 21.5 C 12.63 g/m*3 21.5 C 8.1 km/h
259 18-07-2020 21:30:00 21.2 C 12.42 g/m*3 21.2 C 8.1 km/h
260 18-07-2020 21:35:00 20.9 C 12.2 g/m*3 20.9 C 8.1 km/h
261 18-07-2020 21:40:00 20.7 C 12.24 g/m*3 20.7 C 8.1 km/h
262 18-07-2020 21:45:00 20.6 C 12.35 g/m*3 20.6 C 6.4 km/h
263 18-07-2020 21:50:00 20.3 C 12.14 g/m*3 20.3 C 8.1 km/h
264 18-07-2020 21:55:00 20.2 C 12.24 g/m*3 20.2 C 8.1 km/h
265 18-07-2020 22:00:00 20.1 C 12.34 g/m*3 20.1 C 6.4 km/h
266 18-07-2020 22:05:00 20 C 12.44 g/m*3 20 C 6.4 km/h
267 18-07-2020 22:10:00 19.9 C 12.37 g/m*3 19.9 C 6.4 km/h
268 18-07-2020 22:15:00 19.8 C 12.3 g/m*3 19.8 C 8.1 km/h
269 18-07-2020 22:20:00 19.8 C 12.3 g/m*3 19.8 C 6.4 km/h
270 18-07-2020 22:25:00 19.7 C 12.4 g/m*3 19.7 C 6.4 km/h
271 18-07-2020 22:30:00 19.6 C 12.32 g/m*3 19.6 C 6.4 km/h
272 18-07-2020 22:35:00 19.6 C 12.32 g/m*3 19.6 C 6.4 km/h
273 18-07-2020 22:40:00 19.5 C 12.42 g/m*3 19.5 C 4.8 km/h
274 18-07-2020 22:45:00 19.4 C 12.35 g/m*3 19.4 C 3.2 km/h
275 18-07-2020 22:50:00 19.3 C 12.11 g/m*3 19.3 C 8.1 km/h
Sensor: Nr:Datum:Temp:Abs-Feuchte:Windchill:Wind:
Aussen-T/F 276 18-07-2020 22:55:00 19.2 C 12.04 g/m*3 19.2 C 8.1 km/h
277 18-07-2020 23:00:00 19.1 C 12.13 g/m*3 19.1 C 6.4 km/h
278 18-07-2020 23:05:00 19 C 12.06 g/m*3 19 C 6.4 km/h
279 18-07-2020 23:10:00 18.9 C 12.31 g/m*3 18.9 C 3.2 km/h
280 18-07-2020 23:15:00 18.8 C 12.24 g/m*3 18.8 C 3.2 km/h
281 18-07-2020 23:20:00 18.7 C 12.33 g/m*3 18.7 C 3.2 km/h
282 18-07-2020 23:25:00 18.6 C 12.26 g/m*3 18.6 C 0 km/h
283 18-07-2020 23:30:00 18.5 C 12.18 g/m*3 18.5 C 1.6 km/h
284 18-07-2020 23:35:00 18.4 C 12.27 g/m*3 18.4 C 0 km/h
285 18-07-2020 23:40:00 18.2 C 12.28 g/m*3 18.2 C 0 km/h
286 18-07-2020 23:45:00 18.1 C 12.21 g/m*3 18.1 C 0 km/h
287 18-07-2020 23:50:00 17.9 C 12.21 g/m*3 17.9 C 0 km/h
288 18-07-2020 23:55:00 17.8 C 12.14 g/m*3 17.8 C 0 km/h
289 19-07-2020 00:00:00 17.7 C 12.22 g/m*3 17.7 C 0 km/h
290 19-07-2020 00:05:00 17.6 C 12.15 g/m*3 17.6 C 0 km/h
291 19-07-2020 00:10:00 17.4 C 12.15 g/m*3 17.4 C 0 km/h
292 19-07-2020 00:15:00 17.3 C 12.08 g/m*3 17.3 C 0 km/h
293 19-07-2020 00:20:00 17.2 C 12.15 g/m*3 17.2 C 0 km/h
294 19-07-2020 00:25:00 17.1 C 12.08 g/m*3 17.1 C 0 km/h
295 19-07-2020 00:30:00 16.9 C 11.94 g/m*3 16.9 C 0 km/h
296 19-07-2020 00:35:00 16.8 C 11.87 g/m*3 16.8 C 0 km/h
297 19-07-2020 00:40:00 16.7 C 11.8 g/m*3 16.7 C 0 km/h
298 19-07-2020 00:45:00 16.6 C 11.72 g/m*3 16.6 C 0 km/h
299 19-07-2020 00:50:00 16.4 C 11.72 g/m*3 16.4 C 0 km/h
300 19-07-2020 00:55:00 16.3 C 11.65 g/m*3 16.3 C 0 km/h
Sensor: Nr:Datum:Temp:Abs-Feuchte:Windchill:Wind:
Aussen-T/F 301 19-07-2020 01:00:00 16.3 C 11.65 g/m*3 16.3 C 0 km/h
302 19-07-2020 01:05:00 16.2 C 11.58 g/m*3 16.2 C 0 km/h
303 19-07-2020 01:10:00 16.1 C 11.51 g/m*3 16.1 C 0 km/h
304 19-07-2020 01:15:00 16.1 C 11.65 g/m*3 16.1 C 0 km/h
305 19-07-2020 01:20:00 15.9 C 11.51 g/m*3 15.9 C 0 km/h
306 19-07-2020 01:25:00 15.9 C 11.51 g/m*3 15.9 C 0 km/h
307 19-07-2020 01:30:00 15.8 C 11.58 g/m*3 15.8 C 0 km/h
308 19-07-2020 01:35:00 15.7 C 11.51 g/m*3 15.7 C 0 km/h
309 19-07-2020 01:40:00 15.7 C 11.51 g/m*3 15.7 C 0 km/h
310 19-07-2020 01:45:00 15.6 C 11.44 g/m*3 15.6 C 0 km/h
311 19-07-2020 01:50:00 15.5 C 11.5 g/m*3 15.5 C 0 km/h
312 19-07-2020 01:55:00 15.4 C 11.43 g/m*3 15.4 C 0 km/h
313 19-07-2020 02:00:00 15.3 C 11.23 g/m*3 15.3 C 0 km/h
314 19-07-2020 02:05:00 15.2 C 11.29 g/m*3 15.2 C 0 km/h
315 19-07-2020 02:10:00 15.2 C 11.29 g/m*3 15.2 C 0 km/h
316 19-07-2020 02:15:00 15.1 C 11.22 g/m*3 15.1 C 0 km/h
317 19-07-2020 02:20:00 15.1 C 11.22 g/m*3 15.1 C 0 km/h
318 19-07-2020 02:25:00 15 C 11.16 g/m*3 15 C 0 km/h
319 19-07-2020 02:30:00 14.9 C 11.09 g/m*3 14.9 C 0 km/h
320 19-07-2020 02:35:00 14.9 C 11.22 g/m*3 14.9 C 0 km/h
321 19-07-2020 02:40:00 14.8 C 11.15 g/m*3 14.8 C 0 km/h
322 19-07-2020 02:45:00 14.8 C 11.15 g/m*3 14.8 C 0 km/h
323 19-07-2020 02:50:00 14.7 C 11.08 g/m*3 14.7 C 0 km/h
324 19-07-2020 02:55:00 14.7 C 11.08 g/m*3 14.7 C 0 km/h
325 19-07-2020 03:00:00 14.6 C 11.14 g/m*3 14.6 C 0 km/h
Sensor: Nr:Datum:Temp:Abs-Feuchte:Windchill:Wind:
Aussen-T/F 326 19-07-2020 03:05:00 14.6 C 11.14 g/m*3 14.6 C 0 km/h
327 19-07-2020 03:10:00 14.5 C 11.07 g/m*3 14.5 C 0 km/h
328 19-07-2020 03:15:00 14.5 C 11.07 g/m*3 14.5 C 0 km/h
329 19-07-2020 03:20:00 14.4 C 11 g/m*3 14.4 C 0 km/h
330 19-07-2020 03:25:00 14.4 C 11 g/m*3 14.4 C 0 km/h
331 19-07-2020 03:30:00 14.4 C 11.13 g/m*3 14.4 C 0 km/h
332 19-07-2020 03:35:00 14.4 C 11.13 g/m*3 14.4 C 0 km/h
333 19-07-2020 03:40:00 14.4 C 11.13 g/m*3 14.4 C 0 km/h
334 19-07-2020 03:45:00 14.4 C 11.13 g/m*3 14.4 C 0 km/h
335 19-07-2020 03:50:00 14.4 C 11.13 g/m*3 14.4 C 0 km/h
336 19-07-2020 03:55:00 14.4 C 11.13 g/m*3 14.4 C 0 km/h
337 19-07-2020 04:00:00 14.5 C 11.19 g/m*3 14.5 C 0 km/h
338 19-07-2020 04:05:00 14.4 C 11.13 g/m*3 14.4 C 0 km/h
339 19-07-2020 04:10:00 14.5 C 11.19 g/m*3 14.5 C 0 km/h
340 19-07-2020 04:15:00 14.5 C 11.19 g/m*3 14.5 C 0 km/h
341 19-07-2020 04:20:00 14.6 C 11.26 g/m*3 14.6 C 0 km/h
342 19-07-2020 04:25:00 14.6 C 11.26 g/m*3 14.6 C 0 km/h
343 19-07-2020 04:30:00 14.6 C 11.26 g/m*3 14.6 C 0 km/h
344 19-07-2020 04:35:00 14.7 C 11.33 g/m*3 14.7 C 0 km/h
345 19-07-2020 04:40:00 14.7 C 11.33 g/m*3 14.7 C 0 km/h
346 19-07-2020 04:45:00 14.7 C 11.33 g/m*3 14.7 C 0 km/h
347 19-07-2020 04:50:00 14.7 C 11.33 g/m*3 14.7 C 0 km/h
348 19-07-2020 04:55:00 14.7 C 11.33 g/m*3 14.7 C 0 km/h
349 19-07-2020 05:00:00 14.7 C 11.33 g/m*3 14.7 C 0 km/h
350 19-07-2020 05:05:00 14.7 C 11.33 g/m*3 14.7 C 0 km/h
Sensor: Nr:Datum:Temp:Abs-Feuchte:Windchill:Wind:
Aussen-T/F 351 19-07-2020 05:10:00 14.7 C 11.33 g/m*3 14.7 C 0 km/h
352 19-07-2020 05:15:00 14.7 C 11.33 g/m*3 14.7 C 0 km/h
353 19-07-2020 05:20:00 14.7 C 11.33 g/m*3 14.7 C 0 km/h
354 19-07-2020 05:25:00 14.7 C 11.46 g/m*3 14.7 C 0 km/h
355 19-07-2020 05:30:00 14.7 C 11.46 g/m*3 14.7 C 0 km/h
356 19-07-2020 05:35:00 14.8 C 11.53 g/m*3 14.8 C 0 km/h
357 19-07-2020 05:40:00 14.8 C 11.53 g/m*3 14.8 C 0 km/h
358 19-07-2020 05:45:00 14.9 C 11.6 g/m*3 14.9 C 0 km/h
359 19-07-2020 05:50:00 14.9 C 11.6 g/m*3 14.9 C 0 km/h
360 19-07-2020 05:55:00 14.9 C 11.6 g/m*3 14.9 C 0 km/h
361 19-07-2020 06:00:00 14.9 C 11.6 g/m*3 14.9 C 0 km/h
362 19-07-2020 06:05:00 14.9 C 11.6 g/m*3 14.9 C 0 km/h
363 19-07-2020 06:10:00 15 C 11.67 g/m*3 15 C 0 km/h
364 19-07-2020 06:15:00 15.1 C 11.61 g/m*3 15.1 C 0 km/h
365 19-07-2020 06:20:00 15.1 C 11.61 g/m*3 15.1 C 0 km/h
366 19-07-2020 06:25:00 15.2 C 11.68 g/m*3 15.2 C 0 km/h
367 19-07-2020 06:30:00 15.3 C 11.75 g/m*3 15.3 C 0 km/h
368 19-07-2020 06:35:00 15.3 C 11.75 g/m*3 15.3 C 0 km/h
369 19-07-2020 06:40:00 15.4 C 11.82 g/m*3 15.4 C 0 km/h
370 19-07-2020 06:45:00 15.4 C 11.82 g/m*3 15.4 C 0 km/h
371 19-07-2020 06:50:00 15.6 C 11.97 g/m*3 15.6 C 0 km/h
372 19-07-2020 06:55:00 15.6 C 11.97 g/m*3 15.6 C 0 km/h
373 19-07-2020 07:00:00 15.7 C 12.04 g/m*3 15.7 C 0 km/h
374 19-07-2020 07:05:00 15.7 C 12.04 g/m*3 15.7 C 0 km/h
375 19-07-2020 07:10:00 15.7 C 12.04 g/m*3 15.7 C 0 km/h
Sensor: Nr:Datum:Temp:Abs-Feuchte:Windchill:Wind:
Aussen-T/F 376 19-07-2020 07:15:00 15.8 C 12.11 g/m*3 15.8 C 0 km/h
377 19-07-2020 07:20:00 15.8 C 12.11 g/m*3 15.8 C 0 km/h
378 19-07-2020 07:25:00 15.8 C 12.11 g/m*3 15.8 C 0 km/h
379 19-07-2020 07:30:00 15.9 C 12.19 g/m*3 15.9 C 0 km/h
380 19-07-2020 07:35:00 15.9 C 12.05 g/m*3 15.9 C 0 km/h
381 19-07-2020 07:40:00 16 C 12.13 g/m*3 16 C 0 km/h
382 19-07-2020 07:45:00 16.1 C 12.2 g/m*3 16.1 C 0 km/h
383 19-07-2020 07:50:00 16.1 C 12.2 g/m*3 16.1 C 0 km/h
384 19-07-2020 07:55:00 16.2 C 12.27 g/m*3 16.2 C 0 km/h
385 19-07-2020 08:00:00 16.2 C 12.27 g/m*3 16.2 C 0 km/h
386 19-07-2020 08:05:00 16.2 C 12.27 g/m*3 16.2 C 0 km/h
387 19-07-2020 08:10:00 16.3 C 12.35 g/m*3 16.3 C 0 km/h
388 19-07-2020 08:15:00 16.3 C 12.35 g/m*3 16.3 C 0 km/h
389 19-07-2020 08:20:00 16.4 C 12.42 g/m*3 16.4 C 0 km/h
390 19-07-2020 08:25:00 16.5 C 12.5 g/m*3 16.5 C 0 km/h
391 19-07-2020 08:30:00 16.7 C 12.79 g/m*3 16.7 C 0 km/h
392 19-07-2020 08:35:00 16.8 C 12.72 g/m*3 16.8 C 0 km/h
393 19-07-2020 08:40:00 16.9 C 12.8 g/m*3 16.9 C 0 km/h
394 19-07-2020 08:45:00 17.1 C 12.96 g/m*3 17.1 C 0 km/h
395 19-07-2020 08:50:00 17.2 C 12.89 g/m*3 17.2 C 0 km/h
396 19-07-2020 08:55:00 17.4 C 13.04 g/m*3 17.4 C 0 km/h
397 19-07-2020 09:00:00 17.6 C 13.35 g/m*3 17.6 C 0 km/h
398 19-07-2020 09:05:00 17.8 C 13.2 g/m*3 17.8 C 0 km/h
399 19-07-2020 09:10:00 17.9 C 13.13 g/m*3 17.9 C 0 km/h
400 19-07-2020 09:15:00 18.2 C 13.21 g/m*3 18.2 C 0 km/h
Sensor: Nr:Datum:Temp:Abs-Feuchte:Windchill:Wind:
Aussen-T/F 401 19-07-2020 09:20:00 18.6 C 13.53 g/m*3 18.6 C 0 km/h
402 19-07-2020 09:25:00 18.9 C 13.61 g/m*3 18.9 C 0 km/h
403 19-07-2020 09:30:00 19.1 C 13.61 g/m*3 19.1 C 0 km/h
404 19-07-2020 09:35:00 19.3 C 13.77 g/m*3 19.3 C 0 km/h
405 19-07-2020 09:40:00 19.4 C 14.01 g/m*3 19.4 C 0 km/h
406 19-07-2020 09:45:00 19.6 C 14.35 g/m*3 19.6 C 0 km/h
407 19-07-2020 09:50:00 19.6 C 14.18 g/m*3 19.6 C 0 km/h
408 19-07-2020 09:55:00 19.7 C 13.92 g/m*3 19.7 C 0 km/h
409 19-07-2020 10:00:00 19.7 C 13.92 g/m*3 19.7 C 0 km/h
410 19-07-2020 10:05:00 19.8 C 13.84 g/m*3 19.8 C 0 km/h
411 19-07-2020 10:10:00 20.1 C 14.08 g/m*3 20.1 C 0 km/h
412 19-07-2020 10:15:00 20.3 C 13.89 g/m*3 20.3 C 0 km/h
413 19-07-2020 10:20:00 20.4 C 13.98 g/m*3 20.4 C 0 km/h
414 19-07-2020 10:25:00 20.8 C 13.4 g/m*3 20.8 C 0 km/h
415 19-07-2020 10:30:00 21.3 C 13.98 g/m*3 21.3 C 0 km/h
416 19-07-2020 10:35:00 21.8 C 14.2 g/m*3 21.8 C 0 km/h
417 19-07-2020 10:40:00 22.3 C 14.02 g/m*3 22.3 C 3.2 km/h
418 19-07-2020 10:45:00 22.8 C 13.21 g/m*3 22.8 C 3.2 km/h
419 19-07-2020 10:50:00 23.4 C 13.04 g/m*3 23.4 C 0 km/h
420 19-07-2020 10:55:00 24 C 12.84 g/m*3 24 C 0 km/h
421 19-07-2020 11:00:00 24.4 C 12.69 g/m*3 24.4 C 9.7 km/h
422 19-07-2020 11:05:00 24.8 C 12.52 g/m*3 24.8 C 12.9 km/h
423 19-07-2020 11:10:00 25.2 C 12.34 g/m*3 25.2 C 12.9 km/h
424 19-07-2020 11:15:00 25.3 C 11.94 g/m*3 25.3 C 11.3 km/h
425 19-07-2020 11:20:00 25.4 C 11.77 g/m*3 25.4 C 11.3 km/h
Sensor: Nr:Datum:Temp:Abs-Feuchte:Windchill:Wind:
Aussen-T/F 426 19-07-2020 11:25:00 25.4 C 11.54 g/m*3 25.4 C 6.4 km/h
427 19-07-2020 11:30:00 25.3 C 11.71 g/m*3 25.3 C 8.1 km/h
428 19-07-2020 11:35:00 25.3 C 11.71 g/m*3 25.3 C 6.4 km/h
429 19-07-2020 11:40:00 25.4 C 12.71 g/m*3 25.4 C 4.8 km/h
430 19-07-2020 11:45:00 25.4 C 12.01 g/m*3 25.4 C 4.8 km/h
431 19-07-2020 11:50:00 25.7 C 11.73 g/m*3 25.7 C 4.8 km/h
432 19-07-2020 11:55:00 25.8 C 12.04 g/m*3 25.8 C 6.4 km/h
433 19-07-2020 12:00:00 26.2 C 11.57 g/m*3 26.2 C 16.1 km/h
434 19-07-2020 12:05:00 26.3 C 11.64 g/m*3 26.3 C 9.7 km/h
435 19-07-2020 12:10:00 26.4 C 11.7 g/m*3 26.4 C 14.5 km/h
436 19-07-2020 12:15:00 26.6 C 11.58 g/m*3 26.6 C 11.3 km/h
437 19-07-2020 12:20:00 26.7 C 11.39 g/m*3 26.7 C 8.1 km/h
438 19-07-2020 12:25:00 26.9 C 11.52 g/m*3 26.9 C 11.3 km/h
439 19-07-2020 12:30:00 27.1 C 11.39 g/m*3 27.1 C 11.3 km/h
440 19-07-2020 12:35:00 27.2 C 11.19 g/m*3 27.2 C 4.8 km/h
441 19-07-2020 12:40:00 27.3 C 11.77 g/m*3 27.3 C 16.1 km/h
442 19-07-2020 12:45:00 27.2 C 11.19 g/m*3 27.2 C 12.9 km/h
443 19-07-2020 12:50:00 27.3 C 11.25 g/m*3 27.3 C 11.3 km/h
444 19-07-2020 12:55:00 27.4 C 11.58 g/m*3 27.4 C 12.9 km/h
445 19-07-2020 13:00:00 27.4 C 11.05 g/m*3 27.4 C 16.1 km/h
446 19-07-2020 13:05:00 27.6 C 12.24 g/m*3 27.6 C 9.7 km/h
447 19-07-2020 13:10:00 27.5 C 11.64 g/m*3 27.5 C 8.1 km/h
448 19-07-2020 13:15:00 27.6 C 11.17 g/m*3 27.6 C 9.7 km/h
449 19-07-2020 13:20:00 27.6 C 11.44 g/m*3 27.6 C 12.9 km/h
450 19-07-2020 13:25:00 27.7 C 11.23 g/m*3 27.7 C 8.1 km/h
Sensor: Nr:Datum:Temp:Abs-Feuchte:Windchill:Wind:
Aussen-T/F 451 19-07-2020 13:30:00 27.8 C 11.57 g/m*3 27.8 C 9.7 km/h
452 19-07-2020 13:35:00 27.9 C 11.09 g/m*3 27.9 C 9.7 km/h
453 19-07-2020 13:40:00 28.1 C 11.76 g/m*3 28.1 C 9.7 km/h
454 19-07-2020 13:45:00 28.1 C 11.48 g/m*3 28.1 C 9.7 km/h
455 19-07-2020 13:50:00 28.2 C 11.55 g/m*3 28.2 C 6.4 km/h
456 19-07-2020 13:55:00 28.2 C 11 g/m*3 28.2 C 12.9 km/h
457 19-07-2020 14:00:00 28.2 C 11.27 g/m*3 28.2 C 12.9 km/h
458 19-07-2020 14:05:00 28.2 C 11 g/m*3 28.2 C 9.7 km/h
459 19-07-2020 14:10:00 28.3 C 11.33 g/m*3 28.3 C 12.9 km/h
460 19-07-2020 14:15:00 28.3 C 11.06 g/m*3 28.3 C 17.7 km/h
461 19-07-2020 14:20:00 28.2 C 11.27 g/m*3 28.2 C 16.1 km/h
462 19-07-2020 14:25:00 28.1 C 10.66 g/m*3 28.1 C 14.5 km/h
463 19-07-2020 14:30:00 28.1 C 10.66 g/m*3 28.1 C 9.7 km/h
464 19-07-2020 14:35:00 28.2 C 10.45 g/m*3 28.2 C 11.3 km/h
465 19-07-2020 14:40:00 28.3 C 9.95 g/m*3 28.3 C 16.1 km/h
466 19-07-2020 14:45:00 28.5 C 10.34 g/m*3 28.5 C 11.3 km/h
467 19-07-2020 14:50:00 28.7 C 10.46 g/m*3 28.7 C 8.1 km/h
468 19-07-2020 14:55:00 28.9 C 10.86 g/m*3 28.9 C 14.5 km/h
469 19-07-2020 15:00:00 29.1 C 9.82 g/m*3 29.1 C 11.3 km/h
470 19-07-2020 15:05:00 29.3 C 10.8 g/m*3 29.3 C 8.1 km/h
471 19-07-2020 15:10:00 29.4 C 10.27 g/m*3 29.4 C 8.1 km/h
472 19-07-2020 15:15:00 29.7 C 10.44 g/m*3 29.7 C 12.9 km/h
473 19-07-2020 15:20:00 29.8 C 10.8 g/m*3 29.8 C 12.9 km/h
474 19-07-2020 15:25:00 29.9 C 9.95 g/m*3 29.9 C 12.9 km/h
475 19-07-2020 15:30:00 30 C 10.01 g/m*3 30 C 12.9 km/h
Sensor: Nr:Datum:Temp:Abs-Feuchte:Windchill:Wind:
Aussen-T/F 476 19-07-2020 15:35:00 30.1 C 9.45 g/m*3 30.1 C 11.3 km/h
477 19-07-2020 15:40:00 30.2 C 10.12 g/m*3 30.2 C 12.9 km/h
478 19-07-2020 15:45:00 30.3 C 10.17 g/m*3 30.3 C 8.1 km/h
479 19-07-2020 15:50:00 30.1 C 10.37 g/m*3 30.1 C 8.1 km/h
480 19-07-2020 15:55:00 29.8 C 10.5 g/m*3 29.8 C 4.8 km/h
481 19-07-2020 16:00:00 29.8 C 10.5 g/m*3 29.8 C 8.1 km/h
482 19-07-2020 16:05:00 30.1 C 10.37 g/m*3 30.1 C 11.3 km/h
483 19-07-2020 16:10:00 30.1 C 10.37 g/m*3 30.1 C 9.7 km/h
484 19-07-2020 16:15:00 29.9 C 11.16 g/m*3 29.9 C 8.1 km/h
485 19-07-2020 16:20:00 29.8 C 10.8 g/m*3 29.8 C 9.7 km/h
486 19-07-2020 16:25:00 29.7 C 10.74 g/m*3 29.7 C 8.1 km/h
487 19-07-2020 16:30:00 29.5 C 10.63 g/m*3 29.5 C 9.7 km/h
488 19-07-2020 16:35:00 29.4 C 10.57 g/m*3 29.4 C 4.8 km/h
489 19-07-2020 16:40:00 29.4 C 10.57 g/m*3 29.4 C 9.7 km/h
490 19-07-2020 16:45:00 29.6 C 10.98 g/m*3 29.6 C 9.7 km/h
491 19-07-2020 16:50:00 29.9 C 11.16 g/m*3 29.9 C 9.7 km/h
492 19-07-2020 16:55:00 30.1 C 10.37 g/m*3 30.1 C 9.7 km/h
493 19-07-2020 17:00:00 30.1 C 10.67 g/m*3 30.1 C 4.8 km/h
494 19-07-2020 17:05:00 30.2 C 11.34 g/m*3 30.2 C 8.1 km/h
495 19-07-2020 17:10:00 30.8 C 10.76 g/m*3 30.8 C 9.7 km/h
496 19-07-2020 17:15:00 31.3 C 10.73 g/m*3 31.3 C 16.1 km/h
497 19-07-2020 17:20:00 31.4 C 10.46 g/m*3 31.4 C 16.1 km/h
498 19-07-2020 17:25:00 31.4 C 10.14 g/m*3 31.4 C 11.3 km/h
499 19-07-2020 17:30:00 31.3 C 9.76 g/m*3 31.3 C 14.5 km/h
500 19-07-2020 17:35:00 31.5 C 10.19 g/m*3 31.5 C 6.4 km/h
Sensor: Nr:Datum:Temp:Abs-Feuchte:Windchill:Wind:
Aussen-T/F 501 19-07-2020 17:40:00 31.7 C 8.97 g/m*3 31.7 C 14.5 km/h
502 19-07-2020 17:45:00 31.7 C 9.3 g/m*3 31.7 C 12.9 km/h
503 19-07-2020 17:50:00 31.8 C 9.35 g/m*3 31.8 C 12.9 km/h
504 19-07-2020 17:55:00 31.8 C 9.69 g/m*3 31.8 C 9.7 km/h
505 19-07-2020 18:00:00 31.1 C 9.97 g/m*3 31.1 C 12.9 km/h
506 19-07-2020 18:05:00 30.9 C 10.19 g/m*3 30.9 C 8.1 km/h
507 19-07-2020 18:10:00 31.2 C 10.03 g/m*3 31.2 C 3.2 km/h
508 19-07-2020 18:15:00 31.1 C 9.65 g/m*3 31.1 C 6.4 km/h
509 19-07-2020 18:20:00 30.8 C 10.13 g/m*3 30.8 C 4.8 km/h
510 19-07-2020 18:25:00 30.6 C 10.34 g/m*3 30.6 C 3.2 km/h
511 19-07-2020 18:30:00 30.8 C 10.13 g/m*3 30.8 C 6.4 km/h
512 19-07-2020 18:35:00 30.8 C 10.13 g/m*3 30.8 C 6.4 km/h
513 19-07-2020 18:40:00 30.3 C 10.17 g/m*3 30.3 C 14.5 km/h
514 19-07-2020 18:45:00 29.9 C 10.86 g/m*3 29.9 C 1.6 km/h
515 19-07-2020 18:50:00 29.8 C 12.3 g/m*3 29.8 C 0 km/h
516 19-07-2020 18:55:00 29.8 C 10.8 g/m*3 29.8 C 1.6 km/h
517 19-07-2020 19:00:00 29.6 C 12.76 g/m*3 29.6 C 3.2 km/h
518 19-07-2020 19:05:00 29.4 C 12.92 g/m*3 29.4 C 3.2 km/h
519 19-07-2020 19:10:00 29.4 C 13.21 g/m*3 29.4 C 1.6 km/h
520 19-07-2020 19:15:00 29.2 C 12.49 g/m*3 29.2 C 1.6 km/h
521 19-07-2020 19:20:00 28.8 C 12.22 g/m*3 28.8 C 3.2 km/h
522 19-07-2020 19:25:00 28.8 C 12.79 g/m*3 28.8 C 1.6 km/h
523 19-07-2020 19:30:00 28.9 C 12.57 g/m*3 28.9 C 3.2 km/h
524 19-07-2020 19:35:00 29.1 C 13 g/m*3 29.1 C 1.6 km/h
525 19-07-2020 19:40:00 29.3 C 12.26 g/m*3 29.3 C 0 km/h
Sensor: Nr:Datum:Temp:Abs-Feuchte:Windchill:Wind:
Aussen-T/F 526 19-07-2020 19:45:00 29.3 C 12.85 g/m*3 29.3 C 4.8 km/h
527 19-07-2020 19:50:00 29.2 C 12.49 g/m*3 29.2 C 4.8 km/h
528 19-07-2020 19:55:00 29 C 12.35 g/m*3 29 C 4.8 km/h
529 19-07-2020 20:00:00 28.8 C 13.07 g/m*3 28.8 C 3.2 km/h
530 19-07-2020 20:05:00 28.4 C 13.06 g/m*3 28.4 C 4.8 km/h
531 19-07-2020 20:10:00 28.1 C 12.3 g/m*3 28.1 C 4.8 km/h
532 19-07-2020 20:15:00 27.7 C 13.11 g/m*3 27.7 C 6.4 km/h
533 19-07-2020 20:20:00 27.3 C 12.3 g/m*3 27.3 C 6.4 km/h
534 19-07-2020 20:25:00 27.1 C 11.9 g/m*3 27.1 C 4.8 km/h
535 19-07-2020 20:30:00 27 C 12.1 g/m*3 27 C 3.2 km/h
536 19-07-2020 20:35:00 27 C 12.35 g/m*3 27 C 6.4 km/h
537 19-07-2020 20:40:00 27.1 C 10.35 g/m*3 27.1 C 8.1 km/h
538 19-07-2020 20:45:00 27.3 C 10.2 g/m*3 27.3 C 8.1 km/h
539 19-07-2020 20:50:00 27.4 C 10.26 g/m*3 27.4 C 8.1 km/h
540 19-07-2020 20:55:00 27.4 C 11.84 g/m*3 27.4 C 4.8 km/h
541 19-07-2020 21:00:00 27.3 C 12.04 g/m*3 27.3 C 1.6 km/h
542 19-07-2020 21:05:00 27 C 12.61 g/m*3 27 C 0 km/h
543 19-07-2020 21:10:00 26.5 C 12.02 g/m*3 26.5 C 3.2 km/h
544 19-07-2020 21:15:00 26 C 11.93 g/m*3 26 C 6.4 km/h
545 19-07-2020 21:20:00 25.4 C 11.3 g/m*3 25.4 C 6.4 km/h
546 19-07-2020 21:25:00 24.9 C 11.67 g/m*3 24.9 C 6.4 km/h
547 19-07-2020 21:30:00 24.6 C 11.93 g/m*3 24.6 C 0 km/h
548 19-07-2020 21:35:00 24.2 C 11.66 g/m*3 24.2 C 3.2 km/h
549 19-07-2020 21:40:00 23.9 C 11.68 g/m*3 23.9 C 8.1 km/h
550 19-07-2020 21:45:00 23.6 C 11.48 g/m*3 23.6 C 4.8 km/h
Sensor: Nr:Datum:Temp:Abs-Feuchte:Windchill:Wind:
Aussen-T/F 551 19-07-2020 21:50:00 23.3 C 12.13 g/m*3 23.3 C 4.8 km/h
552 19-07-2020 21:55:00 23.1 C 12.2 g/m*3 23.1 C 1.6 km/h
553 19-07-2020 22:00:00 22.8 C 10.57 g/m*3 22.8 C 11.3 km/h
554 19-07-2020 22:05:00 23.1 C 11.16 g/m*3 23.1 C 6.4 km/h
555 19-07-2020 22:10:00 23.2 C 10.81 g/m*3 23.2 C 6.4 km/h
556 19-07-2020 22:15:00 23.3 C 11.29 g/m*3 23.3 C 6.4 km/h
557 19-07-2020 22:20:00 23.3 C 11.08 g/m*3 23.3 C 3.2 km/h
558 19-07-2020 22:25:00 23.3 C 11.29 g/m*3 23.3 C 4.8 km/h
559 19-07-2020 22:30:00 23.1 C 11.37 g/m*3 23.1 C 4.8 km/h
560 19-07-2020 22:35:00 22.8 C 11.18 g/m*3 22.8 C 3.2 km/h
561 19-07-2020 22:40:00 22.4 C 10.72 g/m*3 22.4 C 3.2 km/h
562 19-07-2020 22:45:00 22.2 C 10.21 g/m*3 22.2 C 4.8 km/h
563 19-07-2020 22:50:00 22.2 C 10.6 g/m*3 22.2 C 3.2 km/h
564 19-07-2020 22:55:00 22.1 C 10.93 g/m*3 22.1 C 3.2 km/h
565 19-07-2020 23:00:00 21.9 C 10.23 g/m*3 21.9 C 3.2 km/h
566 19-07-2020 23:05:00 21.8 C 10.74 g/m*3 21.8 C 4.8 km/h
567 19-07-2020 23:10:00 21.9 C 10.23 g/m*3 21.9 C 9.7 km/h
568 19-07-2020 23:15:00 21.9 C 10.61 g/m*3 21.9 C 4.8 km/h
569 19-07-2020 23:20:00 21.7 C 10.3 g/m*3 21.7 C 8.1 km/h
570 19-07-2020 23:25:00 21.5 C 10.18 g/m*3 21.5 C 6.4 km/h
571 19-07-2020 23:30:00 21.4 C 10.12 g/m*3 21.4 C 3.2 km/h
572 19-07-2020 23:35:00 21.3 C 10.25 g/m*3 21.3 C 4.8 km/h
573 19-07-2020 23:40:00 21.2 C 10.38 g/m*3 21.2 C 3.2 km/h
574 19-07-2020 23:45:00 20.9 C 9.83 g/m*3 20.9 C 3.2 km/h
575 19-07-2020 23:50:00 20.8 C 9.96 g/m*3 20.8 C 3.2 km/h
Sensor: Nr:Datum:Temp:Abs-Feuchte:Windchill:Wind:
Aussen-T/F 576 19-07-2020 23:55:00 20.8 C 10.32 g/m*3 20.8 C 4.8 km/h

Legende:
   Min
   Max


Maximal/Minimal-Werte vom 18.07.2020 - 19.07.2020

Sensor Min Max Avg
Temp
(Aussen-T/F)
12.8 °C
18-07-2020  04:15:00
31.8 °C
19-07-2020  17:50:00
20.91 °C
Abs-Feuchte
(Aussen-T/F)
8.97 g/m*3
19-07-2020  17:40:00
14.89 g/m*3
18-07-2020  15:20:00
11.75 g/m*3
Windchill
(Aussen-T/F)
12.8 C
18-07-2020  04:15:00
31.8 C
19-07-2020  17:50:00
20.88 C

Die Daten stammen von einer Davis Vantage Pro 2 Wetter-Station und werden unter Linux mit der Software wview2wettercgi und aufbereitet. Alle Angaben erfolgen ohne Gewähr für ihre Vollständigkeit oder Richtigkeit.
Kontakt: Rainer Krienke krienke@uni-koblenz.de . Meine Webseiten an der Uni Koblenz oder privat.
Version: $Revision: 0.78 $